sat.trackr.live / text

‹ back to catalog

STARLING 3

NORAD 57389 · 2023-100D

PAYLOAD ACTIVE UNKNOWN

§ Identity

Operator
Country
US
Launch date
2023-07-18
Launch site
RLLB
Launch vehicle
Mass (kg)
RCS (m²)

External: N2YO · Heavens-Above · Gunter

§ Orbital elements

Epoch: 2026-05-25T00:01:35.324256Z

Period
95.23 min
Inclination
99.5067°
Eccentricity
0.0005492
Mean motion
15.12051794 rev/d
Perigee alt
526.1 km
Apogee alt
533.7 km
Semi-major
6,908.1 km
B*
3.3213e-4
RAAN
160.1481°
Arg perigee
173.5397°
Mean anomaly
186.5899°
Rev number
15,656

§ Raw data

STARLING 31 57389U 23100D   26145.00110329  .00005620  00000+0  33213-3 0  99992 57389  99.5067 160.1481 0005492 173.5397 186.5899 15.12051794156560

JSON: /api/v1/satellites/57389 · /tle

For live sub-satellite position, see the globe view (requires WebGL).

§ Visibility from observer

Set your observer location to see the next 7 days of passes ≥ 10°. The values pass through the URL so the page stays shareable.

No JS? Fill the form by hand. The geolocation button needs JavaScript.